User: anonymous   Login
Location: Unspecified
(0.0000°N, 0.0000°E)
Time: 01:05:15
(UTC+00:00)
Language:

STARLINK-34327 - Orbit

View from above orbital plane
View from above orbital plane
View from above satellite
View from above satellite

Ground track
Ground track

The orbit is defined by the following mean orbital elements,

1 64208U          26145.00462058 +.00000000 +00000-0 +37027-3 0 00008
2 64208  53.1586  44.8637 0001194  78.0882 282.0252 15.30203820    05
Epoch (UTC): 25 May 2026 00:06:39
Eccentricity: 0.0001194
inclination: 53.1586°
perigee height: 474 km
apogee height: 476 km
right ascension of ascending node: 44.8637°
argument of perigee: 78.0882°
revolutions per day: 15.30203820
mean anomaly at epoch: 282.0252°

The dashed part of the orbit path shows where the satellite is in the earth's shadow,  

DLR